Language: 


Des rapports , des résumés tant et plus, au choix de chacun....


Données statistiques de la station
Quotidien Rapport Décembre 6, 2017 Unités:  Anglais    Métrique   les deux
« Précédent Jour
Suivant Jour »
Quotidien Hebdomadaire Mensuel Annuel Actuel
  Haut: Bas: Moyen:
Température: 47.8 °F 32 °F 45 °F
Pt de rosée: 48.2 °F 39.2 °F 43.3 °F
Humidité: 98 % 0 % 91 %
Vitesse du vent: 11 mph 0 mph 3.4 mph
Rafales: 16.8 mph - -
Vent:- - SW
Pression: 30.5 in 0 in -
Précipitation: 0 in    
Historical Graphs
 
 
Données statistiques pour Décembre 6, 2017
Heure Température Point de rosée Pression Vent Vitesse du vent Refales Humidité Pluie (taux horaire)
00:01 43.5 °F 42.8 °F 30.5 in Calm   3.1 mph 96 % 0 in
00:06 43.7 °F 42.8 °F 30.5 in Calm   2.7 mph 96 % 0 in
00:11 43.7 °F 42.8 °F 30.5 in SSW 4 mph 4.7 mph 96 % 0 in
00:21 43.9 °F 42.8 °F 30.5 in Calm   4 mph 96 % 0 in
00:27 44.1 °F 42.8 °F 30.5 in WSW 3.6 mph 3.6 mph 96 % 0 in
00:32 44.1 °F 42.8 °F 30.5 in SSW 1.3 mph 3.6 mph 96 % 0 in
00:37 44.1 °F 42.8 °F 30.5 in SW 2.5 mph 3.6 mph 96 % 0 in
00:42 44.1 °F 42.8 °F 30.5 in Calm   2.9 mph 96 % 0 in
00:47 44.1 °F 42.8 °F 30.5 in Calm   3.1 mph 96 % 0 in
00:52 44.2 °F 42.8 °F 30.5 in Calm   3.8 mph 96 % 0 in
00:57 44.2 °F 42.8 °F 30.5 in Calm   3.8 mph 96 % 0 in
00:58 44.2 °F 42.8 °F 30.5 in Calm   3.8 mph 96 % 0 in
01:03 44.1 °F 42.8 °F 30.5 in Calm     96 % 0 in
01:08 44.1 °F 42.8 °F 30.5 in Calm     96 % 0 in
01:13 44.1 °F 42.8 °F 30.5 in Calm     96 % 0 in
01:18 44.1 °F 42.8 °F 30.5 in Calm     96 % 0 in
01:23 44.1 °F 42.8 °F 30.5 in Calm     96 % 0 in
01:28 44.1 °F 42.8 °F 30.5 in Calm   3.1 mph 96 % 0 in
01:33 44.1 °F 42.8 °F 30.5 in Calm   3.1 mph 96 % 0 in
01:38 44.1 °F 42.8 °F 30.5 in Calm     96 % 0 in
01:43 44.1 °F 42.8 °F 30.5 in Calm     96 % 0 in
01:48 43.7 °F 42.8 °F 30.5 in SSW 2.5 mph 2.7 mph 95 % 0 in
01:53 43.5 °F 42.8 °F 30.5 in SSW 2.5 mph 2.7 mph 95 % 0 in
01:58 43.3 °F 42.8 °F 30.5 in Calm   3.6 mph 95 % 0 in
02:03 43.3 °F 42.8 °F 30.5 in Calm   3.6 mph 95 % 0 in
02:08 43.3 °F 42.8 °F 30.5 in Calm     96 % 0 in
02:13 43.2 °F 42.8 °F 30.5 in Calm     96 % 0 in
02:18 43.2 °F 42.8 °F 30.5 in Calm     96 % 0 in
02:23 43.2 °F 42.8 °F 30.5 in Calm     96 % 0 in
02:28 43.2 °F 42.8 °F 30.5 in Calm     96 % 0 in
02:33 43.2 °F 42.8 °F 30.5 in Calm   2.9 mph 96 % 0 in
02:38 43.2 °F 42.8 °F 30.5 in Calm   2.9 mph 96 % 0 in
02:43 43.2 °F 42.8 °F 30.5 in Calm   1.1 mph 96 % 0 in
02:48 43.2 °F 42.8 °F 30.5 in Calm   1.1 mph 97 % 0 in
02:50 43.3 °F 42.8 °F 30.5 in Calm   1.1 mph 97 % 0 in
02:55 43.3 °F 42.8 °F 30.5 in Calm   3.4 mph 97 % 0 in
03:01 32 °F 42.8 °F 0 in Calm     0 % 0 in
03:06 43.5 °F 42.8 °F 30.5 in Calm   3.1 mph 97 % 0 in
03:11 43.5 °F 42.8 °F 30.5 in Calm   3.6 mph 97 % 0 in
03:16 43.5 °F 42.8 °F 30.5 in WSW 3.4 mph 3.6 mph 97 % 0 in
03:21 43.7 °F 42.8 °F 30.5 in Calm   3.4 mph 97 % 0 in
03:26 43.7 °F 42.8 °F 30.5 in Calm   3.4 mph 97 % 0 in
03:31 43.7 °F 42.8 °F 30.5 in Calm   2.7 mph 97 % 0 in
03:33 43.7 °F 42.8 °F 30.5 in Calm   2.7 mph 97 % 0 in
03:38 43.7 °F 44.6 °F 30.5 in Calm   0.9 mph 98 % 0 in
03:43 43.9 °F 44.6 °F 30.5 in WSW 2.9 mph 2.9 mph 98 % 0 in
03:44 43.7 °F 44.6 °F 30.5 in WSW 2.7 mph 3.8 mph 98 % 0 in
03:49 43.5 °F 42.8 °F 30.5 in WSW 1.6 mph 3.8 mph 97 % 0 in
03:55 43.5 °F 42.8 °F 30.5 in Calm   2.9 mph 97 % 0 in
04:00 43.5 °F 42.8 °F 30.5 in West 1.6 mph 2.2 mph 97 % 0 in
04:05 43.5 °F 42.8 °F 30.5 in West 0.9 mph 1.6 mph 97 % 0 in
04:10 43.5 °F 42.8 °F 30.5 in Calm   2.7 mph 98 % 0 in
04:15 43.5 °F 42.8 °F 30.5 in Calm   2.7 mph 98 % 0 in
04:20 43.3 °F 42.8 °F 30.5 in Calm   1.1 mph 98 % 0 in
04:25 43.3 °F 42.8 °F 30.5 in Calm     98 % 0 in
04:30 43.3 °F 42.8 °F 30.5 in Calm     98 % 0 in
04:35 43.2 °F 42.8 °F 30.5 in Calm   2.5 mph 98 % 0 in
04:40 43.2 °F 42.8 °F 30.4 in WSW 2.7 mph 2.9 mph 98 % 0 in
04:44 43 °F 42.8 °F 30.4 in Calm   2.9 mph 98 % 0 in
04:49 43 °F 42.8 °F 30.4 in WSW 1.1 mph 2.9 mph 98 % 0 in
04:54 42.8 °F 42.8 °F 30.4 in Calm   2.5 mph 98 % 0 in
04:59 42.8 °F 42.8 °F 30.4 in Calm   1.1 mph 98 % 0 in
05:04 42.8 °F 42.8 °F 30.4 in Calm   1.3 mph 98 % 0 in
05:09 42.8 °F 42.8 °F 30.4 in Calm   2 mph 98 % 0 in
05:14 42.8 °F 42.8 °F 30.4 in Calm   2 mph 98 % 0 in
05:19 43 °F 42.8 °F 30.4 in Calm     98 % 0 in
05:24 43 °F 42.8 °F 30.4 in Calm     98 % 0 in
05:29 43.2 °F 42.8 °F 30.4 in Calm     98 % 0 in
05:34 43.2 °F 42.8 °F 30.4 in Calm     98 % 0 in
05:39 43.2 °F 42.8 °F 30.4 in Calm     98 % 0 in
05:44 43.3 °F 42.8 °F 30.4 in Calm     98 % 0 in
05:49 43.3 °F 42.8 °F 30.4 in Calm     98 % 0 in
05:54 43 °F 42.8 °F 30.4 in Calm     98 % 0 in
06:00 43 °F 42.8 °F 30.4 in Calm     98 % 0 in
06:05 43.2 °F 42.8 °F 30.4 in Calm     98 % 0 in
06:10 43 °F 42.8 °F 30.4 in Calm     98 % 0 in
06:15 42.8 °F 42.8 °F 30.4 in Calm     98 % 0 in
06:20 42.8 °F 42.8 °F 30.4 in Calm     98 % 0 in
06:25 42.8 °F 42.8 °F 30.4 in Calm     98 % 0 in
06:30 42.8 °F 42.8 °F 30.4 in Calm     98 % 0 in
06:35 42.8 °F 42.8 °F 30.4 in Calm     98 % 0 in
06:40 42.8 °F 42.8 °F 30.4 in Calm   0.9 mph 98 % 0 in
06:45 42.8 °F 42.8 °F 30.5 in Calm   0.9 mph 98 % 0 in
06:55 43 °F 42.8 °F 30.5 in SW 2.9 mph 2.9 mph 98 % 0 in
07:00 43.2 °F 42.8 °F 30.4 in SW 2.7 mph 3.1 mph 98 % 0 in
07:05 43.3 °F 42.8 °F 30.4 in Calm   3.1 mph 98 % 0 in
07:10 43.5 °F 42.8 °F 30.4 in Calm   2.7 mph 98 % 0 in
07:15 43.5 °F 42.8 °F 30.4 in Calm   2.7 mph 98 % 0 in
07:20 43.7 °F 44.6 °F 30.4 in Calm   2.7 mph 98 % 0 in
07:25 43.7 °F 44.6 °F 30.4 in Calm   1.3 mph 98 % 0 in
07:30 43.7 °F 44.6 °F 30.4 in Calm     98 % 0 in
07:35 43.9 °F 44.6 °F 30.4 in Calm     98 % 0 in
07:40 43.9 °F 44.6 °F 30.4 in SSE 5.8 mph 5.8 mph 98 % 0 in
07:45 44.1 °F 44.6 °F 30.4 in WSW 3.1 mph 5.8 mph 98 % 0 in
07:46 44.1 °F 44.6 °F 30.4 in WSW 3.1 mph 5.8 mph 98 % 0 in
07:51 44.1 °F 44.6 °F 30.4 in West 4 mph 4.3 mph 98 % 0 in
07:56 44.2 °F 44.6 °F 30.4 in West 2.9 mph 4 mph 98 % 0 in
08:01 44.2 °F 44.6 °F 30.4 in Calm   4 mph 98 % 0 in
08:06 44.2 °F 44.6 °F 30.4 in Calm   2.9 mph 98 % 0 in
08:11 44.1 °F 44.6 °F 30.4 in SSW 3.1 mph 3.1 mph 98 % 0 in
08:16 44.1 °F 44.6 °F 30.4 in SSW 3.1 mph 3.4 mph 98 % 0 in
08:21 44.1 °F 44.6 °F 30.4 in Calm   3.4 mph 98 % 0 in
08:26 44.1 °F 44.6 °F 30.4 in Calm   3.1 mph 98 % 0 in
08:31 44.1 °F 44.6 °F 30.4 in Calm   3.1 mph 98 % 0 in
08:36 44.1 °F 44.6 °F 30.4 in WSW 3.1 mph 3.1 mph 98 % 0 in
08:42 44.1 °F 44.6 °F 30.4 in Calm   3.1 mph 98 % 0 in
08:47 44.1 °F 44.6 °F 30.4 in Calm   3.1 mph 98 % 0 in
08:52 44.1 °F 44.6 °F 30.4 in Calm     98 % 0 in
08:57 44.1 °F 44.6 °F 30.4 in Calm     98 % 0 in
09:02 44.1 °F 44.6 °F 30.4 in Calm     98 % 0 in
09:07 44.1 °F 44.6 °F 30.4 in Calm     98 % 0 in
09:12 44.1 °F 44.6 °F 30.4 in Calm     98 % 0 in
09:17 44.1 °F 44.6 °F 30.4 in Calm   2 mph 98 % 0 in
09:18 44.1 °F 44.6 °F 30.4 in Calm   2 mph 98 % 0 in
09:23 44.2 °F 44.6 °F 30.4 in Calm   2 mph 98 % 0 in
09:28 44.2 °F 44.6 °F 30.4 in SW 2.5 mph 2.5 mph 98 % 0 in
09:33 44.2 °F 44.6 °F 30.4 in Calm   3.6 mph 98 % 0 in
09:38 44.4 °F 44.6 °F 30.4 in Calm   3.6 mph 98 % 0 in
09:43 44.4 °F 44.6 °F 30.4 in SW 2.7 mph 3.1 mph 98 % 0 in
09:48 44.6 °F 44.6 °F 30.4 in Calm   3.1 mph 98 % 0 in
09:53 44.6 °F 44.6 °F 30.4 in Calm   1.6 mph 98 % 0 in
09:58 44.6 °F 44.6 °F 30.4 in SW 2.9 mph 2.9 mph 98 % 0 in
10:03 44.8 °F 44.6 °F 30.4 in Calm   2.9 mph 98 % 0 in
10:08 44.8 °F 44.6 °F 30.4 in Calm   1.3 mph 98 % 0 in
10:13 44.8 °F 44.6 °F 30.4 in Calm   1.6 mph 98 % 0 in
10:18 45 °F 44.6 °F 30.4 in Calm   1.6 mph 98 % 0 in
10:23 45.1 °F 44.6 °F 30.4 in Calm     98 % 0 in
10:28 45.1 °F 44.6 °F 30.4 in Calm     98 % 0 in
10:33 45.3 °F 44.6 °F 30.4 in Calm     98 % 0 in
10:38 45.3 °F 44.6 °F 30.4 in Calm     98 % 0 in
10:43 45.3 °F 44.6 °F 30.4 in Calm     98 % 0 in
10:48 45.5 °F 46.4 °F 30.4 in Calm     98 % 0 in
10:53 45.5 °F 46.4 °F 30.4 in SW 3.4 mph 4 mph 98 % 0 in
10:58 45.7 °F 46.4 °F 30.4 in SW 2.9 mph 4.3 mph 98 % 0 in
11:03 45.9 °F 46.4 °F 30.4 in SW 4 mph 4.3 mph 98 % 0 in
11:08 45.9 °F 46.4 °F 30.4 in Calm   5.4 mph 98 % 0 in
11:13 46 °F 46.4 °F 30.4 in SSW 2.7 mph 5.4 mph 98 % 0 in
11:18 46.2 °F 46.4 °F 30.4 in SSW 2.5 mph 6 mph 98 % 0 in
11:29 46.4 °F 46.4 °F 30.4 in SSW 3.1 mph 5.4 mph 98 % 0 in
11:34 46.6 °F 46.4 °F 30.4 in South 4.9 mph 5.6 mph 98 % 0 in
11:39 46.6 °F 46.4 °F 30.4 in SW 5.8 mph 5.8 mph 98 % 0 in
11:44 46.8 °F 46.4 °F 30.4 in SW 7.2 mph 7.6 mph 98 % 0 in
11:49 46.8 °F 46.4 °F 30.4 in WSW 3.8 mph 7.6 mph 98 % 0 in
11:54 46.8 °F 46.4 °F 30.4 in WSW 8.5 mph 8.5 mph 98 % 0 in
11:59 46.8 °F 46.4 °F 30.4 in SW 6.5 mph 8.5 mph 98 % 0 in
12:04 46.8 °F 46.4 °F 30.4 in SW 5.6 mph 7.4 mph 98 % 0 in
12:09 46.8 °F 46.4 °F 30.4 in SSW 4.3 mph 6.5 mph 98 % 0 in
12:14 46.8 °F 46.4 °F 30.4 in SSW 8.7 mph 8.7 mph 98 % 0 in
12:19 46.9 °F 48.2 °F 30.4 in WSW 5.6 mph 8.7 mph 98 % 0 in
12:24 46.9 °F 48.2 °F 30.4 in Calm   8.7 mph 98 % 0 in
12:29 46.9 °F 48.2 °F 30.4 in WSW 3.8 mph 5.8 mph 98 % 0 in
12:34 47.1 °F 48.2 °F 30.4 in WSW 5.6 mph 7.4 mph 98 % 0 in
12:39 47.1 °F 48.2 °F 30.4 in SW 6.3 mph 7.4 mph 98 % 0 in
12:44 47.3 °F 48.2 °F 30.4 in WSW 6.3 mph 7.4 mph 98 % 0 in
12:49 47.3 °F 48.2 °F 30.4 in SW 4.3 mph 7.6 mph 98 % 0 in
12:54 47.3 °F 48.2 °F 30.4 in WSW 6.3 mph 8.1 mph 98 % 0 in
12:59 47.3 °F 48.2 °F 30.4 in SW 7.8 mph 8.1 mph 98 % 0 in
13:04 47.5 °F 48.2 °F 30.4 in SW 5.8 mph 7.8 mph 98 % 0 in
13:09 47.5 °F 48.2 °F 30.4 in WSW 5.6 mph 10.3 mph 98 % 0 in
13:14 47.5 °F 48.2 °F 30.4 in WSW 5.8 mph 10.3 mph 98 % 0 in
13:19 47.5 °F 48.2 °F 30.4 in WSW 5.4 mph 8.7 mph 98 % 0 in
13:24 47.3 °F 48.2 °F 30.4 in WSW 4.9 mph 7.6 mph 98 % 0 in
13:29 47.3 °F 48.2 °F 30.4 in SW 6 mph 7.4 mph 97 % 0 in
13:35 47.5 °F 48.2 °F 30.4 in Calm   6.5 mph 97 % 0 in
13:40 47.5 °F 48.2 °F 30.4 in Calm   6.5 mph 97 % 0 in
13:45 47.7 °F 48.2 °F 30.4 in SSW 4 mph 5.4 mph 97 % 0 in
13:50 47.7 °F 48.2 °F 30.4 in SW 5.6 mph 6.3 mph 96 % 0 in
13:55 47.7 °F 48.2 °F 30.4 in WSW 4.3 mph 6.5 mph 96 % 0 in
14:00 47.7 °F 46.4 °F 30.4 in SW 5.4 mph 6.5 mph 95 % 0 in
14:05 47.8 °F 48.2 °F 30.4 in SW 3.8 mph 6.5 mph 95 % 0 in
14:10 47.8 °F 48.2 °F 30.4 in SW 0.9 mph 5.4 mph 95 % 0 in
14:15 47.8 °F 46.4 °F 30.4 in WSW 5.6 mph 6.7 mph 94 % 0 in
14:20 47.8 °F 46.4 °F 30.4 in SW 4 mph 6.7 mph 94 % 0 in
14:25 47.8 °F 46.4 °F 30.4 in SW 3.6 mph 6 mph 93 % 0 in
14:30 47.8 °F 46.4 °F 30.4 in SW 5.4 mph 6 mph 93 % 0 in
14:35 47.8 °F 46.4 °F 30.4 in SSW 6.3 mph 6.5 mph 92 % 0 in
14:40 47.8 °F 46.4 °F 30.4 in SSW 6.5 mph 6.5 mph 92 % 0 in
14:45 47.8 °F 46.4 °F 30.4 in SW 5.8 mph 7.6 mph 91 % 0 in
14:50 47.8 °F 46.4 °F 30.4 in SW 6 mph 7.8 mph 91 % 0 in
14:55 47.8 °F 46.4 °F 30.4 in SSW 4 mph 8.9 mph 90 % 0 in
15:00 47.8 °F 46.4 °F 30.4 in SW 6 mph 8.9 mph 89 % 0 in
15:05 47.8 °F 46.4 °F 30.4 in WSW 6.3 mph 7.6 mph 89 % 0 in
15:10 47.8 °F 44.6 °F 30.4 in SW 7.6 mph 7.6 mph 88 % 0 in
15:15 47.7 °F 44.6 °F 30.4 in SW 7.4 mph 7.8 mph 88 % 0 in
15:21 47.7 °F 44.6 °F 30.4 in WSW 3.8 mph 7.8 mph 88 % 0 in
15:26 47.7 °F 44.6 °F 30.4 in SW 5.6 mph 8.7 mph 87 % 0 in
15:31 47.7 °F 44.6 °F 30.4 in SW 8.1 mph 8.7 mph 87 % 0 in
15:36 47.7 °F 44.6 °F 30.4 in WSW 6.7 mph 9.6 mph 86 % 0 in
15:41 47.7 °F 44.6 °F 30.4 in WSW 5.4 mph 9.6 mph 86 % 0 in
15:46 47.7 °F 44.6 °F 30.4 in SSW 5.8 mph 7.8 mph 86 % 0 in
15:51 47.7 °F 44.6 °F 30.4 in SW 8.7 mph 8.7 mph 86 % 0 in
15:56 47.7 °F 44.6 °F 30.4 in SSW 7.2 mph 8.7 mph 85 % 0 in
16:01 47.5 °F 44.6 °F 30.4 in SW 8.7 mph 9.8 mph 85 % 0 in
16:06 47.5 °F 44.6 °F 30.4 in SSW 6.3 mph 12.5 mph 85 % 0 in
16:11 47.5 °F 42.8 °F 30.4 in SSW 8.1 mph 12.5 mph 84 % 0 in
16:16 47.5 °F 42.8 °F 30.4 in SSW 6.3 mph 8.7 mph 84 % 0 in
16:21 47.5 °F 42.8 °F 30.4 in SW 4.9 mph 8.7 mph 84 % 0 in
16:26 47.3 °F 42.8 °F 30.4 in SW 8.1 mph 8.7 mph 83 % 0 in
16:31 47.3 °F 42.8 °F 30.4 in SW 7.2 mph 8.7 mph 83 % 0 in
16:36 47.3 °F 42.8 °F 30.4 in SW 5.4 mph 8.5 mph 83 % 0 in
16:37 47.3 °F 42.8 °F 30.4 in WSW 7.2 mph 8.5 mph 83 % 0 in
16:42 47.3 °F 42.8 °F 30.3 in SSW 6.5 mph 10.1 mph 83 % 0 in
16:47 47.3 °F 42.8 °F 30.3 in SW 6.3 mph 10.1 mph 83 % 0 in
16:53 47.1 °F 42.8 °F 30.3 in South 4.9 mph 8.1 mph 83 % 0 in
16:58 46.9 °F 42.8 °F 30.3 in SSW 5.6 mph 7.4 mph 84 % 0 in
17:03 46.9 °F 42.8 °F 30.3 in SSE 6.3 mph 7.4 mph 83 % 0 in
17:08 46.9 °F 42.8 °F 30.3 in SW 5.8 mph 6.3 mph 83 % 0 in
17:18 46.8 °F 42.8 °F 30.3 in SSW 2.7 mph 7.2 mph 83 % 0 in
17:23 46.8 °F 42.8 °F 30.3 in SSW 3.6 mph 7.4 mph 83 % 0 in
17:28 46.8 °F 42.8 °F 30.3 in Calm   7.4 mph 83 % 0 in
17:33 46.6 °F 42.8 °F 30.3 in South 3.4 mph 7.6 mph 83 % 0 in
17:38 46.6 °F 42.8 °F 30.3 in South 7.8 mph 7.8 mph 83 % 0 in
17:43 46.6 °F 42.8 °F 30.3 in SSW 3.8 mph 8.1 mph 82 % 0 in
17:48 46.6 °F 42.8 °F 30.3 in South 8.1 mph 8.5 mph 82 % 0 in
17:53 46.6 °F 41 °F 30.3 in SSW 3.1 mph 8.7 mph 81 % 0 in
17:55 46.6 °F 41 °F 30.3 in South 4.9 mph 8.7 mph 81 % 0 in
18:00 46.6 °F 41 °F 30.3 in SW 5.4 mph 8.7 mph 81 % 0 in
18:05 46.6 °F 41 °F 30.3 in SSE 6.5 mph 6.5 mph 81 % 0 in
18:10 46.4 °F 41 °F 30.3 in SSW 4.3 mph 6.5 mph 81 % 0 in
18:15 46.4 °F 41 °F 30.3 in SSW 4.5 mph 6.7 mph 81 % 0 in
18:20 46.4 °F 41 °F 30.3 in SSW 4.3 mph 10.3 mph 81 % 0 in
18:25 46.4 °F 41 °F 30.3 in SW 4.3 mph 10.3 mph 80 % 0 in
18:30 46.4 °F 41 °F 30.3 in SSW 5.8 mph 8.5 mph 80 % 0 in
18:35 46.4 °F 41 °F 30.3 in SSW 6.7 mph 8.5 mph 80 % 0 in
18:41 46.2 °F 41 °F 30.3 in WSW 3.8 mph 6.7 mph 80 % 0 in
18:46 46.2 °F 41 °F 30.3 in SSW 8.5 mph 8.5 mph 80 % 0 in
18:51 46.2 °F 41 °F 30.3 in SSW 6.5 mph 8.9 mph 79 % 0 in
18:56 46.2 °F 41 °F 30.3 in SW 5.6 mph 8.9 mph 79 % 0 in
19:01 46.2 °F 41 °F 30.3 in South 3.6 mph 8.1 mph 79 % 0 in
19:06 46 °F 39.2 °F 30.3 in SSW 5.6 mph 8.1 mph 79 % 0 in
19:11 46 °F 39.2 °F 30.3 in SSW 6.5 mph 10.3 mph 79 % 0 in
19:16 46 °F 39.2 °F 30.3 in SSW 7.6 mph 10.3 mph 79 % 0 in
19:21 45.9 °F 39.2 °F 30.3 in South 4 mph 8.7 mph 79 % 0 in
19:31 45.7 °F 39.2 °F 30.3 in SSW 10.3 mph 10.3 mph 79 % 0 in
19:32 45.7 °F 41 °F 30.3 in SSW 5.6 mph 10.3 mph 80 % 0 in
19:37 45.7 °F 41 °F 30.3 in SSW 4 mph 10.3 mph 80 % 0 in
19:42 45.7 °F 39.2 °F 30.3 in South 5.6 mph 8.1 mph 79 % 0 in
19:47 45.5 °F 41 °F 30.3 in SSW 7.6 mph 9.4 mph 80 % 0 in
19:52 45.5 °F 41 °F 30.3 in SSW 6 mph 11.4 mph 80 % 0 in
19:57 45.5 °F 41 °F 30.3 in SW 4.3 mph 11.4 mph 80 % 0 in
20:02 45.3 °F 39.2 °F 30.3 in South 5.8 mph 8.5 mph 80 % 0 in
20:07 45.3 °F 39.2 °F 30.3 in SSW 4.9 mph 8.7 mph 80 % 0 in
20:12 45.3 °F 39.2 °F 30.3 in South 4.7 mph 8.7 mph 79 % 0 in
20:17 45.3 °F 39.2 °F 30.3 in SSW 7.4 mph 8.1 mph 80 % 0 in
20:22 45.3 °F 39.2 °F 30.3 in SSW 6.7 mph 8.7 mph 79 % 0 in
20:27 45.1 °F 39.2 °F 30.3 in SSW 5.6 mph 8.7 mph 80 % 0 in
20:32 45.1 °F 39.2 °F 30.3 in SSW 5.6 mph 10.3 mph 80 % 0 in
20:37 45.1 °F 39.2 °F 30.3 in SSW 6 mph 10.3 mph 79 % 0 in
20:42 45.1 °F 39.2 °F 30.3 in South 6.5 mph 8.5 mph 80 % 0 in
20:48 45 °F 39.2 °F 30.3 in South 4.3 mph 9.6 mph 80 % 0 in
20:53 45 °F 39.2 °F 30.3 in SSW 5.8 mph 9.8 mph 79 % 0 in
20:58 45 °F 39.2 °F 30.3 in SSW 3.8 mph 9.8 mph 80 % 0 in
21:03 44.8 °F 39.2 °F 30.3 in SW 6.7 mph 10.1 mph 80 % 0 in
21:08 44.8 °F 39.2 °F 30.3 in SSW 6 mph 10.5 mph 80 % 0 in
21:13 44.8 °F 39.2 °F 30.3 in SSW 7.4 mph 10.5 mph 81 % 0 in
21:18 44.6 °F 39.2 °F 30.3 in SW 7.6 mph 8.7 mph 81 % 0 in
21:23 44.6 °F 39.2 °F 30.3 in WSW 7.4 mph 10.7 mph 82 % 0 in
21:33 44.6 °F 39.2 °F 30.3 in SW 5.4 mph 10.5 mph 83 % 0 in
21:39 44.6 °F 39.2 °F 30.3 in South 5.6 mph 10.5 mph 83 % 0 in
21:44 44.6 °F 41 °F 30.3 in SSW 6 mph 10.5 mph 84 % 0 in
21:49 44.6 °F 41 °F 30.3 in SW 4.7 mph 8.9 mph 84 % 0 in
21:54 44.6 °F 41 °F 30.3 in SSW 6.5 mph 10.1 mph 85 % 0 in
21:59 44.6 °F 41 °F 30.3 in WSW 8.5 mph 10.1 mph 85 % 0 in
22:04 44.4 °F 41 °F 30.3 in SW 5.4 mph 9.8 mph 85 % 0 in
22:09 44.4 °F 41 °F 30.3 in SSW 6 mph 9.8 mph 86 % 0 in
22:14 44.4 °F 41 °F 30.3 in South 9.8 mph 9.8 mph 86 % 0 in
22:19 44.4 °F 41 °F 30.3 in South 6.5 mph 9.8 mph 86 % 0 in
22:24 44.4 °F 41 °F 30.3 in South 6 mph 12.5 mph 86 % 0 in
22:29 44.4 °F 41 °F 30.3 in SSW 6.3 mph 12.5 mph 86 % 0 in
22:34 44.4 °F 41 °F 30.3 in SW 10.1 mph 12.3 mph 86 % 0 in
22:39 44.4 °F 41 °F 30.3 in SSW 4.9 mph 16.8 mph 86 % 0 in
22:49 44.2 °F 41 °F 30.3 in SSW 9.6 mph 12.3 mph 85 % 0 in
22:55 44.2 °F 41 °F 30.3 in SW 6.5 mph 10.1 mph 85 % 0 in
23:00 44.2 °F 41 °F 30.2 in WSW 6 mph 10.1 mph 85 % 0 in
23:05 44.2 °F 39.2 °F 30.2 in SSW 7.4 mph 9.6 mph 84 % 0 in
23:10 44.2 °F 39.2 °F 30.2 in SSW 9.8 mph 9.8 mph 83 % 0 in
23:15 44.2 °F 39.2 °F 30.2 in SSW 8.1 mph 10.3 mph 82 % 0 in
23:20 44.2 °F 39.2 °F 30.2 in SW 8.1 mph 10.3 mph 82 % 0 in
23:25 44.2 °F 39.2 °F 30.2 in SSW 11 mph 11 mph 82 % 0 in
23:30 44.2 °F 39.2 °F 30.2 in SSW 10.1 mph 11 mph 81 % 0 in
23:35 44.2 °F 39.2 °F 30.2 in South 6.5 mph 10.7 mph 82 % 0 in
23:40 44.1 °F 39.2 °F 30.2 in SSW 7.4 mph 10.5 mph 83 % 0 in
23:45 44.1 °F 39.2 °F 30.2 in SSW 8.1 mph 10.3 mph 84 % 0 in
23:50 44.1 °F 39.2 °F 30.2 in SSW 4.9 mph 13 mph 84 % 0 in
23:55 44.1 °F 39.2 °F 30.2 in SSW 10.3 mph 13 mph 84 % 0 in
Le Gheer Warneton
Courtoisie de Weather Underground - 2.25 mb

Mise a jour : 17-12-17 08:47:12
Généré par Cumulus 1.9.4 (1099)